Wind_Speed
24 25 24 25 26 25 26 27 27 27 29 32 31 31 33 33 34 35 37 39 38 38 38 38 38 38 35 25 22 20 19 16 11 9 8 11 11 13 20 26 36 28 23 29 35 48 55
26 26 27 27 28 27 28 28 29 31 32 32 31 31 32 33 34 35 35 37 39 39 38 37 36 36 35 27 28 18 17 14 11 9 7 10 12 14 16 24 32 36 31 27 25 30 44
27 28 30 30 30 30 29 30 31 33 33 33 32 32 32 33 34 36 37 38 37 39 39 38 38 34 34 30 28 23 16 13 10 11 8 9 11 15 17 21 25 25 37 35 27 25 31
30 30 30 32 32 32 33 33 34 35 35 34 33 32 32 33 35 36 38 39 39 38 38 37 37 34 33 31 30 23 18 12 10 10 12 9 10 14 17 19 23 26 31 31 37 35 32
33 33 34 34 34 35 35 36 36 37 37 36 35 35 34 35 36 37 39 41 41 41 39 38 37 35 32 31 30 28 21 14 11 11 12 13 14 16 16 20 23 26 25 26 29 30 34
33 34 35 36 37 38 38 38 38 39 39 39 37 37 38 39 40 40 41 42 41 40 41 41 38 35 34 31 30 28 24 19 17 15 15 15 16 18 18 21 19 26 25 24 26 28 30
34 33 35 38 40 41 42 41 40 40 39 40 40 41 42 42 42 42 42 43 43 42 39 42 40 36 37 31 30 29 28 24 21 21 19 20 20 17 19 19 23 25 28 24 26 29 34
36 37 38 39 40 40 40 41 42 41 41 42 42 41 42 44 45 46 46 46 45 46 42 43 43 39 37 31 31 30 29 27 25 24 25 26 19 21 26 27 28 28 31 30 31 30 35
44 41 41 42 42 44 43 41 42 43 42 42 43 44 46 47 48 49 49 50 50 50 51 45 47 43 36 32 33 32 30 29 29 28 27 29 25 30 29 29 30 31 31 30 34 36 38
44 48 45 45 45 44 46 44 42 42 44 46 47 48 48 52 53 55 55 54 54 53 56 55 45 41 38 37 34 33 33 30 30 30 32 34 29 34 34 30 32 33 31 36 38 40 44
46 46 45 45 45 44 44 43 43 43 44 46 49 52 55 56 57 58 57 57 56 55 55 50 47 44 41 40 39 35 33 33 30 33 35 32 30 35 37 28 35 31 35 35 38 40 43
41 43 44 45 48 49 49 49 48 49 51 53 56 59 62 63 62 60 59 57 56 54 56 51 48 47 45 44 40 37 36 34 32 32 35 35 34 35 33 33 35 34 37 39 39 41 52
46 48 50 52 53 55 54 54 55 56 58 59 62 63 62 61 59 56 53 54 53 50 49 51 48 47 46 42 39 41 44 39 34 35 34 34 35 34 37 35 34 37 35 40 44 49 54
50 53 55 58 58 59 59 61 62 62 62 61 58 53 51 49 49 49 48 46 46 46 45 48 50 49 49 50 52 52 50 43 37 36 36 36 35 33 32 37 37 41 40 43 48 52 50
55 60 62 61 62 63 65 65 62 58 48 41 38 39 40 41 42 43 43 43 43 44 46 48 49 47 47 48 51 52 51 49 43 40 37 39 39 31 35 40 39 37 41 35 40 43 48
61 63 62 61 62 61 54 42 33 30 32 35 37 40 43 43 44 45 44 43 43 44 46 47 48 46 45 46 47 49 47 44 37 29 25 31 37 35 34 37 40 42 38 38 42 45 49
59 57 52 42 32 29 26 27 30 34 37 38 41 44 48 48 50 48 47 49 47 44 45 46 45 49 48 46 44 45 47 46 47 44 39 40 42 45 42 38 36 36 40 36 40 50 52
26 23 24 29 31 31 31 30 33 36 42 43 43 47 50 51 51 48 48 48 50 49 49 47 45 47 46 46 41 41 41 43 44 46 45 41 46 47 46 41 43 40 44 44 49 38 38
33 31 32 32 34 36 35 36 40 41 43 47 47 47 49 47 46 48 48 50 51 53 48 46 43 44 44 41 44 43 40 40 40 40 40 44 46 49 48 43 45 48 50 54 56 55 51
37 37 39 39 39 42 41 44 43 47 50 48 51 48 48 47 49 50 51 51 52 53 50 46 45 44 44 45 45 44 43 42 42 44 46 47 48 46 49 48 47 45 45 53 60 65 63
40 41 41 43 42 43 46 47 48 51 52 52 53 52 52 51 51 51 49 51 51 50 47 45 44 41 40 40 42 42 42 41 39 40 41 45 46 45 47 48 50 52 51 46 49 55 68
41 42 43 45 43 45 46 49 50 52 54 54 54 53 52 54 54 50 49 51 51 50 50 47 44 43 41 40 39 40 39 38 38 38 40 43 46 47 49 49 53 57 55 55 55 58 62
43 43 43 44 45 47 48 51 53 55 56 55 54 55 57 57 52 50 51 50 50 51 50 47 46 43 42 41 41 40 40 39 40 40 40 44 48 52 56 54 57 61 56 55 57 56 59
43 44 45 46 48 49 51 53 56 60 61 61 59 56 55 54 52 52 52 52 52 52 51 48 47 46 44 44 43 42 42 42 43 42 46 50 51 56 60 59 65 58 55 54 55 53 53
45 45 45 45 47 50 52 53 54 57 60 60 55 51 49 51 51 51 52 53 53 54 53 52 50 49 48 47 48 47 44 47 47 49 49 50 53 56 58 59 62 59 55 54 50 49 49
50 44 44 47 47 48 52 52 55 57 58 53 48 49 49 49 49 51 51 53 54 53 53 52 50 49 47 47 47 49 47 47 47 48 47 48 50 52 55 57 61 57 53 49 49 55 48
47 47 47 50 51 54 52 52 55 58 57 50 47 48 49 50 50 51 51 53 53 53 52 49 46 45 45 45 45 46 45 44 45 43 43 42 44 46 47 53 57 53 49 44 41 33 35
46 45 47 50 52 50 52 53 56 52 49 47 48 50 48 49 49 49 51 52 53 51 49 47 46 43 40 39 39 39 40 38 39 37 39 40 39 41 41 42 44 40 38 35 31 27 28
48 48 50 54 51 48 54 52 49 46 45 47 49 49 48 49 48 49 50 51 50 49 46 44 43 40 38 37 37 35 34 35 35 31 33 39 39 40 38 34 35 36 34 35 31 29 26
Wind_Direction
319 317 316 319 320 322 324 328 331 333 335 337 340 342 342 345 347 349 354 356 358 358 356 352 349 346 345 343 344 350 353 351 342 325 311 248 244 240 242 238 235 215 214 218 216 222 225
317 317 315 317 319 320 322 327 328 329 332 333 333 335 337 339 341 344 348 352 352 353 353 349 348 345 341 340 337 336 341 343 333 319 298 256 236 239 244 245 242 239 231 217 207 220 226
316 317 316 317 318 318 320 324 327 329 329 329 329 332 334 336 339 341 344 346 350 350 348 347 346 342 339 334 334 324 321 330 322 306 300 275 249 249 246 242 243 244 244 234 214 216 225
313 314 314 314 314 315 316 317 321 323 324 325 325 327 331 332 334 335 338 341 343 345 344 341 339 339 337 333 329 328 308 308 305 294 280 273 255 246 244 245 243 245 244 245 241 236 232
315 313 312 311 312 313 315 316 317 318 318 321 322 323 325 327 328 330 332 334 335 336 339 336 334 335 331 328 323 319 313 286 289 280 275 265 259 246 247 246 244 249 248 245 239 243 249
317 317 317 315 313 312 311 311 312 314 315 317 319 319 320 322 323 325 326 327 329 332 334 333 329 326 325 322 317 313 307 292 274 269 268 263 258 251 244 246 247 246 242 236 231 237 238
315 317 317 319 316 313 312 311 310 310 309 310 312 314 315 317 318 319 320 321 323 326 328 327 323 320 320 315 312 309 303 296 282 266 263 256 255 260 249 250 246 243 245 243 240 232 233
311 312 313 315 317 314 312 309 306 305 306 307 309 310 313 316 319 319 318 318 319 319 320 321 317 313 312 306 304 302 298 292 283 265 258 259 264 255 245 241 241 241 242 247 249 246 245
309 306 308 311 316 316 313 316 312 305 305 306 307 309 312 314 317 316 315 314 314 314 313 312 312 309 304 297 298 294 290 287 282 273 264 255 248 249 248 247 246 245 247 245 248 245 245
313 308 302 306 310 316 315 313 314 313 308 307 308 310 311 312 313 313 312 310 309 309 309 311 309 305 300 292 292 285 283 282 277 271 264 257 251 251 251 249 252 248 249 247 246 246 248
306 309 312 306 308 310 313 313 309 309 309 309 308 308 308 309 309 309 309 307 305 307 304 305 303 301 292 285 284 278 277 278 273 267 263 263 249 248 250 248 250 251 250 252 253 253 254
305 307 311 309 307 309 312 310 310 309 308 308 308 307 308 307 306 307 306 303 304 303 303 299 299 294 287 281 277 269 269 271 268 268 267 264 260 254 258 252 250 255 252 253 253 254 253
301 302 303 304 307 309 308 309 309 309 309 309 309 308 306 306 306 306 305 304 304 304 300 298 296 290 283 274 266 261 266 271 267 267 269 267 263 256 251 249 250 250 253 256 256 256 259
298 303 306 305 304 304 306 309 308 307 308 308 309 310 311 313 313 312 313 313 312 305 299 295 294 290 283 279 275 270 270 268 264 265 265 261 255 256 253 253 253 251 251 254 258 261 269
297 301 304 305 303 305 306 308 308 310 313 315 319 323 324 324 324 322 320 318 314 310 305 299 294 295 294 286 282 283 281 276 273 265 260 262 261 253 249 246 245 248 248 253 260 263 268
298 301 303 302 303 306 309 312 318 324 327 327 328 326 324 325 324 323 323 323 322 318 313 307 301 296 288 285 284 283 281 275 266 255 251 260 268 262 250 245 245 246 251 252 250 257 260
299 302 306 310 315 320 326 323 321 324 325 323 321 325 323 321 322 322 326 327 328 321 315 310 301 294 291 289 284 283 282 280 272 262 249 250 249 249 248 248 244 238 243 249 255 253 257
322 323 319 313 312 311 313 312 311 317 323 319 318 322 323 320 322 321 327 329 331 329 322 314 306 298 293 290 286 284 283 281 278 274 266 254 254 257 259 245 248 244 246 244 244 243 255
308 307 305 305 307 310 312 311 311 310 314 320 320 321 322 323 326 326 328 332 332 331 327 318 311 304 294 282 281 280 279 276 270 263 263 262 259 262 266 264 255 246 244 246 247 245 242
298 299 302 305 308 310 310 309 311 314 316 317 320 320 321 323 323 326 327 330 331 331 328 320 313 307 303 297 289 285 281 280 280 277 274 271 268 269 271 271 270 262 255 249 248 250 250
302 303 303 307 306 307 310 312 313 316 319 317 320 320 320 323 323 325 328 329 330 329 323 316 311 304 300 298 296 294 291 288 287 283 278 275 275 275 273 275 275 273 264 248 251 253 250
302 304 305 306 307 309 313 315 315 316 319 317 318 320 322 323 321 322 324 328 329 327 322 317 311 306 300 297 293 292 290 286 284 283 282 282 282 280 277 277 276 272 269 266 258 253 252
302 304 306 309 311 313 314 315 317 317 317 318 318 318 317 320 320 320 322 325 326 324 321 316 313 309 302 299 295 293 289 286 284 280 278 277 277 277 277 276 272 270 273 270 267 260 255
305 305 308 310 313 314 315 315 316 317 316 317 317 315 317 318 318 318 321 323 323 320 318 314 309 306 302 296 292 289 287 286 283 283 281 280 281 280 280 280 276 279 273 270 268 264 260
301 306 308 307 308 310 312 315 321 322 320 320 319 317 316 316 315 317 320 322 321 319 316 312 308 304 299 295 292 289 285 284 283 282 281 281 279 280 278 279 279 277 280 278 273 264 260
301 302 307 308 311 312 314 316 321 322 323 322 319 319 317 315 318 319 321 321 320 319 315 312 309 305 301 297 294 292 290 289 286 284 282 279 278 277 278 279 279 279 280 275 272 267 263
299 303 304 304 303 307 313 317 321 324 323 320 321 320 318 320 321 321 322 322 322 322 317 315 313 309 305 302 298 296 294 293 291 289 286 282 278 276 276 275 277 280 280 278 272 273 260
298 299 301 305 306 312 315 317 323 324 321 319 320 320 321 322 323 323 325 325 325 324 322 321 319 316 311 307 305 302 301 298 296 296 293 287 282 277 275 276 278 280 278 274 270 260 257
296 296 297 300 306 308 313 318 323 323 323 324 323 321 325 325 325 327 328 328 328 328 327 326 324 322 322 320 315 314 310 309 307 307 294 292 288 285 283 280 276 272 270 269 268 258 253
Height
5821 5818 5814 5810 5806 5802 5798 5793 5789 5784 5780 5775 5770 5765 5760 5754 5747 5741 5734 5726 5718 5710 5703 5696 5690 5683 5676 5671 5666 5661 5657 5655 5650 5648 5647 5648 5650 5651 5656 5659 5663 5670 5672 5677 5681 5686 5689
5818 5814 5811 5807 5803 5799 5795 5790 5786 5781 5777 5772 5768 5762 5755 5750 5744 5738 5731 5724 5718 5710 5702 5694 5688 5682 5676 5671 5665 5661 5657 5654 5653 5649 5647 5646 5647 5649 5652 5656 5661 5665 5669 5675 5677 5681 5685
5814 5810 5807 5803 5799 5795 5791 5787 5783 5778 5773 5769 5764 5758 5752 5746 5740 5735 5728 5722 5715 5709 5702 5695 5687 5680 5675 5671 5664 5660 5656 5653 5652 5650 5647 5645 5646 5648 5651 5653 5657 5660 5666 5671 5675 5677 5681
5811 5807 5803 5799 5795 5791 5787 5782 5778 5774 5770 5764 5759 5753 5747 5742 5736 5730 5725 5719 5712 5706 5699 5693 5686 5679 5673 5668 5663 5658 5655 5652 5649 5649 5647 5646 5644 5645 5648 5651 5653 5656 5660 5666 5670 5673 5675
5806 5802 5798 5794 5790 5786 5782 5778 5773 5768 5763 5758 5753 5748 5743 5737 5731 5726 5720 5714 5709 5702 5696 5690 5685 5678 5671 5665 5661 5656 5653 5651 5648 5646 5646 5645 5644 5643 5644 5647 5650 5651 5656 5660 5663 5664 5667
5801 5797 5793 5789 5785 5780 5776 5771 5767 5763 5758 5753 5748 5743 5737 5732 5726 5721 5715 5709 5703 5698 5692 5686 5680 5676 5669 5664 5658 5653 5650 5647 5645 5644 5643 5642 5642 5641 5641 5642 5646 5649 5649 5650 5654 5657 5658
5796 5792 5787 5783 5778 5773 5769 5765 5760 5755 5750 5746 5741 5736 5730 5725 5719 5714 5708 5703 5699 5693 5688 5682 5676 5670 5665 5660 5654 5649 5645 5642 5641 5640 5639 5637 5637 5638 5638 5637 5637 5638 5642 5644 5647 5646 5647
5790 5786 5781 5776 5771 5765 5760 5755 5751 5747 5742 5738 5733 5727 5722 5717 5712 5707 5701 5696 5690 5686 5681 5674 5668 5663 5657 5653 5648 5644 5640 5637 5635 5633 5632 5632 5635 5633 5630 5630 5630 5631 5632 5639 5637 5638 5639
5783 5779 5774 5769 5763 5757 5753 5749 5744 5740 5735 5730 5725 5720 5714 5708 5704 5697 5691 5686 5680 5675 5670 5668 5660 5654 5649 5645 5640 5636 5632 5629 5627 5625 5624 5624 5628 5623 5624 5626 5626 5626 5628 5630 5631 5630 5628
5776 5771 5767 5762 5757 5751 5745 5741 5736 5731 5727 5722 5718 5712 5707 5700 5695 5688 5682 5675 5668 5663 5657 5656 5650 5645 5640 5635 5632 5627 5623 5621 5619 5617 5614 5614 5619 5617 5616 5619 5620 5620 5623 5621 5620 5621 5621
5768 5764 5758 5754 5749 5744 5738 5733 5728 5723 5719 5713 5708 5703 5696 5689 5683 5676 5670 5663 5656 5651 5644 5641 5637 5633 5628 5625 5621 5618 5614 5611 5610 5608 5606 5608 5609 5607 5607 5615 5611 5615 5613 5613 5612 5612 5610
5759 5755 5750 5745 5740 5736 5731 5726 5720 5715 5710 5704 5698 5692 5685 5678 5670 5663 5656 5649 5644 5641 5634 5628 5626 5621 5616 5612 5609 5605 5603 5601 5601 5600 5598 5599 5600 5601 5604 5604 5603 5606 5606 5606 5605 5603 5594
5751 5746 5741 5735 5730 5726 5721 5716 5711 5704 5699 5693 5686 5679 5671 5664 5658 5650 5643 5637 5635 5629 5623 5618 5614 5610 5605 5601 5596 5594 5591 5591 5591 5590 5591 5592 5591 5593 5593 5595 5597 5599 5599 5597 5594 5590 5585
5740 5735 5731 5726 5720 5715 5710 5705 5699 5692 5686 5679 5672 5664 5658 5651 5645 5639 5632 5627 5622 5616 5609 5604 5600 5598 5595 5590 5588 5584 5581 5581 5580 5579 5579 5578 5581 5584 5586 5585 5589 5586 5589 5588 5584 5582 5585
5730 5725 5720 5714 5709 5704 5698 5692 5686 5680 5673 5666 5660 5655 5649 5643 5635 5629 5623 5617 5610 5605 5599 5593 5588 5585 5583 5580 5577 5575 5573 5572 5571 5569 5568 5567 5567 5572 5571 5574 5575 5577 5576 5584 5577 5577 5572
5719 5713 5707 5701 5696 5690 5685 5680 5674 5669 5665 5660 5654 5648 5642 5635 5627 5621 5615 5608 5601 5595 5589 5584 5578 5575 5569 5566 5565 5562 5562 5562 5562 5561 5562 5560 5556 5559 5561 5561 5563 5566 5570 5571 5569 5566 5562
5706 5700 5695 5690 5686 5681 5677 5673 5668 5663 5657 5652 5646 5640 5634 5626 5620 5613 5606 5600 5593 5586 5580 5575 5568 5561 5557 5554 5552 5551 5548 5549 5548 5550 5549 5546 5545 5546 5547 5550 5553 5556 5557 5559 5558 5558 5555
5697 5693 5689 5685 5680 5675 5671 5666 5662 5656 5649 5643 5637 5632 5625 5618 5612 5604 5597 5590 5583 5576 5568 5563 5557 5550 5545 5540 5539 5537 5537 5535 5535 5535 5534 5534 5530 5530 5533 5539 5538 5541 5543 5545 5543 5543 5544
5692 5687 5683 5678 5674 5669 5664 5660 5655 5649 5644 5639 5632 5625 5618 5612 5605 5597 5590 5582 5574 5566 5559 5553 5547 5542 5538 5534 5528 5525 5523 5523 5523 5522 5521 5521 5520 5518 5519 5526 5526 5527 5528 5529 5529 5528 5532
5686 5682 5677 5672 5667 5662 5658 5652 5648 5643 5637 5630 5625 5617 5610 5602 5596 5589 5582 5573 5564 5555 5548 5542 5536 5531 5528 5524 5520 5517 5514 5514 5515 5514 5512 5509 5508 5511 5508 5511 5512 5513 5516 5515 5515 5512 5514
5679 5674 5670 5666 5661 5657 5651 5645 5641 5635 5629 5622 5616 5609 5601 5593 5586 5579 5572 5564 5555 5548 5540 5532 5528 5523 5516 5512 5508 5506 5505 5504 5504 5503 5502 5499 5497 5500 5496 5497 5497 5496 5497 5502 5500 5501 5497
5672 5668 5664 5660 5654 5648 5643 5637 5632 5627 5619 5613 5607 5600 5592 5585 5578 5570 5562 5554 5545 5537 5531 5524 5516 5511 5505 5501 5498 5495 5492 5491 5490 5491 5488 5486 5483 5482 5482 5485 5480 5475 5479 5482 5485 5484 5481
5665 5660 5656 5651 5646 5641 5636 5630 5623 5617 5611 5604 5596 5590 5582 5574 5567 5560 5552 5543 5535 5527 5521 5513 5507 5502 5496 5491 5486 5483 5480 5479 5478 5475 5474 5472 5469 5466 5463 5467 5462 5457 5465 5466 5465 5469 5469
5656 5652 5647 5643 5639 5633 5627 5621 5615 5608 5602 5594 5586 5579 5572 5563 5556 5548 5541 5533 5524 5516 5510 5503 5495 5489 5486 5480 5476 5472 5469 5466 5464 5464 5459 5456 5455 5449 5444 5446 5437 5444 5446 5447 5447 5449 5452
5648 5644 5639 5634 5629 5625 5619 5612 5605 5598 5591 5583 5575 5568 5561 5554 5547 5538 5530 5523 5514 5505 5498 5492 5485 5478 5471 5466 5461 5458 5458 5453 5451 5448 5445 5442 5437 5431 5426 5426 5423 5423 5425 5425 5428 5431 5431
5639 5635 5631 5627 5621 5615 5610 5602 5596 5588 5581 5573 5566 5558 5551 5544 5537 5529 5521 5512 5505 5496 5487 5478 5470 5464 5458 5452 5447 5440 5438 5436 5434 5432 5431 5427 5423 5418 5413 5407 5402 5405 5407 5410 5409 5402 5411
5631 5627 5622 5617 5612 5606 5600 5594 5586 5580 5571 5564 5557 5549 5542 5534 5527 5519 5511 5502 5493 5484 5476 5468 5460 5453 5446 5439 5433 5428 5425 5421 5417 5416 5414 5411 5406 5402 5399 5392 5388 5391 5391 5390 5389 5397 5391
5620 5616 5612 5607 5602 5598 5591 5585 5579 5571 5562 5555 5548 5541 5534 5526 5517 5509 5501 5492 5483 5474 5465 5457 5449 5442 5436 5429 5423 5418 5413 5409 5406 5404 5397 5393 5391 5388 5385 5383 5381 5380 5378 5379 5379 5379 5381
5612 5606 5601 5597 5594 5588 5583 5577 5570 5563 5555 5547 5541 5533 5524 5516 5509 5501 5492 5483 5474 5465 5456 5447 5440 5433 5425 5419 5413 5409 5403 5399 5396 5395 5389 5381 5378 5373 5374 5373 5370 5367 5367 5368 5369 5371 5373